Retour au catalogue

ARIANE 5 R/B

ActifHEO
NORAD 33057·ROCKET BODY·🇫🇷 France

Lancé Jun 12, 2008 depuis Guiana Space Centre

Loading…

Prochains Passages (prochaines 24 heures)

TLE

FraisSource: Space-Track

Époque: Sep 14, 2026, 04:24 UTC

1 33057U 08030C   26257.18354205  .00002164  00000-0  63022-3 0  9998
2 33057   1.7683 325.3317 7017188 348.9862   1.5419  2.61438453161555

Suivez ARIANE 5 R/B en temps réel avec AllMySat

Download on the App Store